Malaviya Twenty — AUEV — position and weather

sailwx.info

Track history (hours):
 
Tides and Currents Weather Stations Pressure Air Temp Water Temp Dewpoint Dewpoint Depression Visibility Wind Speed Wind Dir Waves Ship Positions

Malaviya Twenty

Last reported at 2014-Oct-20 10:33 UTC. Time now 2014-Oct-20 11:34 UTC.
Position N 53°01' E 002°14'.

Length 72 m; draft 4.7 m.

Type: Ship. MMSI: 419504000.

Date/timePositionNaut miles runAvg speedWind from/ knotsBaromVisibWave heightAir tempDewpointWater temp
2014-Oct-20 10:33N 53°01' E 002°14'1 0.7
2014-Oct-20 09:09N 53°02' E 002°14'3 0.4
2014-Oct-20 01:25N 52°59' E 002°13'1 0.8
2014-Oct-20 00:33N 52°59' E 002°12'2 0.2
2014-Oct-19 17:27N 53°00' E 002°14'1 0.4
2014-Oct-19 14:14N 53°02' E 002°14'0 0.1
2014-Oct-19 09:33N 53°01' E 002°14'1 0.6
2014-Oct-19 08:33N 53°02' E 002°14'1 1.3
2014-Oct-19 07:25N 53°03' E 002°14'0 0.0
2014-Oct-19 06:32N 53°03' E 002°14'0 0.0
2014-Oct-19 05:33N 53°03' E 002°14'3 3.0
2014-Oct-19 04:30N 53°00' E 002°15'2 1.8
2014-Oct-19 03:33N 53°02' E 002°14'1 0.2
2014-Oct-18 23:29N 53°01' E 002°14'2 0.3
2014-Oct-18 16:24N 53°03' E 002°14'3 0.4
2014-Oct-18 10:33N 53°01' E 002°14'1 0.5
2014-Oct-18 09:25N 53°01' E 002°15'1 0.2
2014-Oct-18 06:22N 53°01' E 002°14'0 0.2
2014-Oct-18 05:13N 53°01' E 002°14'1 1.2
2014-Oct-18 04:31N 53°02' E 002°14'1 1.5
2014-Oct-18 03:32N 53°03' E 002°14'0 0.0
2014-Oct-18 02:24N 53°03' E 002°14'0 0.0
2014-Oct-18 01:31N 53°03' E 002°14'2 1.0
2014-Oct-17 23:28N 53°01' E 002°14'0 0.2
2014-Oct-17 22:32N 53°01' E 002°14'0 0.1
2014-Oct-17 21:12N 53°01' E 002°14'1 0.6
2014-Oct-17 19:06N 53°02' E 002°14'12 7.6
2014-Oct-17 17:33N 52°54' E 002°01'10 9.9
2014-Oct-17 16:34N 52°46' E 001°51'9 8.8
2014-Oct-17 15:34N 52°38' E 001°46'2 2.4
2014-Oct-17 14:33N 52°36' E 001°44'0 0.0
2014-Oct-17 13:33N 52°36' E 001°44'0 0.0
2014-Oct-17 12:33N 52°36' E 001°44'0 0.0
2014-Oct-17 11:33N 52°36' E 001°44'0 0.0
2014-Oct-17 10:33N 52°36' E 001°44'0 0.0
2014-Oct-17 09:33N 52°36' E 001°44'0 0.0
2014-Oct-17 08:33N 52°36' E 001°44'0 0.0
2014-Oct-17 07:33N 52°36' E 001°44'0 0.0
2014-Oct-17 06:33N 52°36' E 001°44'0 0.0
2014-Oct-17 05:33N 52°36' E 001°44'0 0.0
2014-Oct-17 04:33N 52°36' E 001°44'0 0.0
2014-Oct-17 03:33N 52°36' E 001°44'0 0.0
2014-Oct-17 02:33N 52°36' E 001°44'0 0.0
2014-Oct-17 01:33N 52°36' E 001°44'0 0.0
2014-Oct-17 00:33N 52°36' E 001°44'0 0.0
2014-Oct-16 23:32N 52°36' E 001°44'0 0.0
2014-Oct-16 22:32N 52°36' E 001°44'0 0.0
2014-Oct-16 21:32N 52°36' E 001°44'0 0.0
2014-Oct-16 20:32N 52°36' E 001°44'0 0.0
2014-Oct-16 19:32N 52°36' E 001°44'0 0.0
2014-Oct-16 18:32N 52°36' E 001°44'1 1.1
2014-Oct-16 17:33N 52°35' E 001°44'4 3.9
2014-Oct-16 16:33N 52°38' E 001°46'9 8.8
2014-Oct-16 15:33N 52°47' E 001°42'1111.4
2014-Oct-16 14:33N 52°57' E 001°33'1111.2
2014-Oct-16 13:33N 53°08' E 001°28'7 0.2
2014-Oct-14 20:30N 53°14' E 001°28'8 8.4
2014-Oct-14 19:33N 53°06' E 001°28'8 8.4
2014-Oct-14 18:33N 52°58' E 001°32'10 9.7
2014-Oct-14 17:33N 52°50' E 001°40'1110.8
2014-Oct-14 16:33N 52°40' E 001°46'4 4.2
2014-Oct-14 15:32N 52°36' E 001°44'0 0.0
2014-Oct-14 14:32N 52°36' E 001°44'0 0.0
2014-Oct-14 13:32N 52°36' E 001°44'0 0.0
2014-Oct-14 12:32N 52°36' E 001°44'0 0.0
2014-Oct-14 11:32N 52°36' E 001°44'0 0.0
2014-Oct-14 10:32N 52°36' E 001°44'0 0.0
2014-Oct-14 09:32N 52°36' E 001°44'0 0.0
2014-Oct-14 08:32N 52°36' E 001°44'0 0.0
2014-Oct-14 07:32N 52°36' E 001°44'0 0.0
2014-Oct-14 06:32N 52°36' E 001°44'0 0.0
2014-Oct-14 05:32N 52°36' E 001°44'0 0.0
2014-Oct-14 04:32N 52°36' E 001°44'0 0.0
2014-Oct-14 03:32N 52°36' E 001°44'0 0.0
2014-Oct-14 02:32N 52°36' E 001°44'0 0.0
2014-Oct-14 01:32N 52°36' E 001°44'0 0.0
2014-Oct-14 00:32N 52°36' E 001°44'0 0.0
2014-Oct-13 23:32N 52°36' E 001°44'0 0.0
2014-Oct-13 22:32N 52°36' E 001°44'0 0.0
2014-Oct-13 21:32N 52°36' E 001°44'0 0.0
2014-Oct-13 20:32N 52°36' E 001°44'0 0.0
2014-Oct-13 19:32N 52°36' E 001°44'0 0.0
2014-Oct-13 18:33N 52°36' E 001°44'2 2.0
2014-Oct-13 17:33N 52°37' E 001°46'5 5.1
2014-Oct-13 16:33N 52°42' E 001°47'9 8.8
2014-Oct-13 15:33N 52°49' E 001°55'10 9.6
2014-Oct-13 14:34N 52°56' E 002°06'7 1.1
2014-Oct-13 08:10N 53°01' E 002°14'2 0.2
2014-Oct-12 21:04N 53°03' E 002°14'2 0.4
2014-Oct-12 15:10N 53°01' E 002°14'0 0.5
2014-Oct-12 14:33N 53°01' E 002°14'9 0.8
2014-Oct-12 03:04N 53°03' E 002°28'0 0.9
2014-Oct-12 02:32N 53°03' E 002°29'9 2.2
2014-Oct-11 22:33N 53°03' E 002°14'0 0.0
2014-Oct-11 21:33N 53°03' E 002°14'1 0.2
2014-Oct-11 16:21N 53°02' E 002°14'1 0.6
2014-Oct-11 15:28N 53°01' E 002°14'2 0.4
2014-Oct-11 10:21N 52°59' E 002°15'3 3.3
2014-Oct-11 09:33N 53°02' E 002°15'1 1.2
2014-Oct-11 08:32N 53°03' E 002°14'4 1.2
2014-Oct-11 05:17N 52°59' E 002°14'1 0.4
2014-Oct-11 03:21N 52°60' E 002°14'0 0.2
2014-Oct-11 02:33N 53°00' E 002°14'1 0.4
2014-Oct-11 00:33N 53°01' E 002°14'1 1.2
2014-Oct-10 23:31N 53°02' E 002°14'1 0.2
2014-Oct-10 19:11N 53°01' E 002°15'0 0.2
2014-Oct-10 16:12N 53°02' E 002°14'0 0.3
2014-Oct-10 15:24N 53°02' E 002°14'0 0.3
2014-Oct-10 14:30N 53°02' E 002°14'1 0.5
2014-Oct-10 11:29N 53°03' E 002°14'  
Track history (hours):
 
Tides and Currents Weather Stations Pressure Air Temp Water Temp Dewpoint Dewpoint Depression Visibility Wind Speed Wind Dir Waves Ship Positions

Malaviya Twenty

Last reported at 2014-Oct-20 10:33 UTC. Time now 2014-Oct-20 11:34 UTC.
Position N 53°01' E 002°14'.

Length 72 m; draft 4.7 m.

Type: Ship. MMSI: 419504000.

Date/timePositionNaut miles runAvg speedWind from/ knotsBaromVisibWave heightAir tempDewpointWater temp
2014-Oct-20 10:33N 53°01' E 002°14'1 0.7
2014-Oct-20 09:09N 53°02' E 002°14'3 0.4
2014-Oct-20 01:25N 52°59' E 002°13'1 0.8
2014-Oct-20 00:33N 52°59' E 002°12'2 0.2
2014-Oct-19 17:27N 53°00' E 002°14'1 0.4
2014-Oct-19 14:14N 53°02' E 002°14'0 0.1
2014-Oct-19 09:33N 53°01' E 002°14'1 0.6
2014-Oct-19 08:33N 53°02' E 002°14'1 1.3
2014-Oct-19 07:25N 53°03' E 002°14'0 0.0
2014-Oct-19 06:32N 53°03' E 002°14'0 0.0
2014-Oct-19 05:33N 53°03' E 002°14'3 3.0
2014-Oct-19 04:30N 53°00' E 002°15'2 1.8
2014-Oct-19 03:33N 53°02' E 002°14'1 0.2
2014-Oct-18 23:29N 53°01' E 002°14'2 0.3
2014-Oct-18 16:24N 53°03' E 002°14'3 0.4
2014-Oct-18 10:33N 53°01' E 002°14'1 0.5
2014-Oct-18 09:25N 53°01' E 002°15'1 0.2
2014-Oct-18 06:22N 53°01' E 002°14'0 0.2
2014-Oct-18 05:13N 53°01' E 002°14'1 1.2
2014-Oct-18 04:31N 53°02' E 002°14'1 1.5
2014-Oct-18 03:32N 53°03' E 002°14'0 0.0
2014-Oct-18 02:24N 53°03' E 002°14'0 0.0
2014-Oct-18 01:31N 53°03' E 002°14'2 1.0
2014-Oct-17 23:28N 53°01' E 002°14'0 0.2
2014-Oct-17 22:32N 53°01' E 002°14'0 0.1
2014-Oct-17 21:12N 53°01' E 002°14'1 0.6
2014-Oct-17 19:06N 53°02' E 002°14'12 7.6
2014-Oct-17 17:33N 52°54' E 002°01'10 9.9
2014-Oct-17 16:34N 52°46' E 001°51'9 8.8
2014-Oct-17 15:34N 52°38' E 001°46'2 2.4
2014-Oct-17 14:33N 52°36' E 001°44'0 0.0
2014-Oct-17 13:33N 52°36' E 001°44'0 0.0
2014-Oct-17 12:33N 52°36' E 001°44'0 0.0
2014-Oct-17 11:33N 52°36' E 001°44'0 0.0
2014-Oct-17 10:33N 52°36' E 001°44'0 0.0
2014-Oct-17 09:33N 52°36' E 001°44'0 0.0
2014-Oct-17 08:33N 52°36' E 001°44'0 0.0
2014-Oct-17 07:33N 52°36' E 001°44'0 0.0
2014-Oct-17 06:33N 52°36' E 001°44'0 0.0
2014-Oct-17 05:33N 52°36' E 001°44'0 0.0
2014-Oct-17 04:33N 52°36' E 001°44'0 0.0
2014-Oct-17 03:33N 52°36' E 001°44'0 0.0
2014-Oct-17 02:33N 52°36' E 001°44'0 0.0
2014-Oct-17 01:33N 52°36' E 001°44'0 0.0
2014-Oct-17 00:33N 52°36' E 001°44'0 0.0
2014-Oct-16 23:32N 52°36' E 001°44'0 0.0
2014-Oct-16 22:32N 52°36' E 001°44'0 0.0
2014-Oct-16 21:32N 52°36' E 001°44'0 0.0
2014-Oct-16 20:32N 52°36' E 001°44'0 0.0
2014-Oct-16 19:32N 52°36' E 001°44'0 0.0
2014-Oct-16 18:32N 52°36' E 001°44'1 1.1
2014-Oct-16 17:33N 52°35' E 001°44'4 3.9
2014-Oct-16 16:33N 52°38' E 001°46'9 8.8
2014-Oct-16 15:33N 52°47' E 001°42'1111.4
2014-Oct-16 14:33N 52°57' E 001°33'1111.2
2014-Oct-16 13:33N 53°08' E 001°28'7 0.2
2014-Oct-14 20:30N 53°14' E 001°28'8 8.4
2014-Oct-14 19:33N 53°06' E 001°28'8 8.4
2014-Oct-14 18:33N 52°58' E 001°32'10 9.7
2014-Oct-14 17:33N 52°50' E 001°40'1110.8
2014-Oct-14 16:33N 52°40' E 001°46'4 4.2
2014-Oct-14 15:32N 52°36' E 001°44'0 0.0
2014-Oct-14 14:32N 52°36' E 001°44'0 0.0
2014-Oct-14 13:32N 52°36' E 001°44'0 0.0
2014-Oct-14 12:32N 52°36' E 001°44'0 0.0
2014-Oct-14 11:32N 52°36' E 001°44'0 0.0
2014-Oct-14 10:32N 52°36' E 001°44'0 0.0
2014-Oct-14 09:32N 52°36' E 001°44'0 0.0
2014-Oct-14 08:32N 52°36' E 001°44'0 0.0
2014-Oct-14 07:32N 52°36' E 001°44'0 0.0
2014-Oct-14 06:32N 52°36' E 001°44'0 0.0
2014-Oct-14 05:32N 52°36' E 001°44'0 0.0
2014-Oct-14 04:32N 52°36' E 001°44'0 0.0
2014-Oct-14 03:32N 52°36' E 001°44'0 0.0
2014-Oct-14 02:32N 52°36' E 001°44'0 0.0
2014-Oct-14 01:32N 52°36' E 001°44'0 0.0
2014-Oct-14 00:32N 52°36' E 001°44'0 0.0
2014-Oct-13 23:32N 52°36' E 001°44'0 0.0
2014-Oct-13 22:32N 52°36' E 001°44'0 0.0
2014-Oct-13 21:32N 52°36' E 001°44'0 0.0
2014-Oct-13 20:32N 52°36' E 001°44'0 0.0
2014-Oct-13 19:32N 52°36' E 001°44'0 0.0
2014-Oct-13 18:33N 52°36' E 001°44'2 2.0
2014-Oct-13 17:33N 52°37' E 001°46'5 5.1
2014-Oct-13 16:33N 52°42' E 001°47'9 8.8
2014-Oct-13 15:33N 52°49' E 001°55'10 9.6
2014-Oct-13 14:34N 52°56' E 002°06'7 1.1
2014-Oct-13 08:10N 53°01' E 002°14'2 0.2
2014-Oct-12 21:04N 53°03' E 002°14'2 0.4
2014-Oct-12 15:10N 53°01' E 002°14'0 0.5
2014-Oct-12 14:33N 53°01' E 002°14'9 0.8
2014-Oct-12 03:04N 53°03' E 002°28'0 0.9
2014-Oct-12 02:32N 53°03' E 002°29'9 2.2
2014-Oct-11 22:33N 53°03' E 002°14'0 0.0
2014-Oct-11 21:33N 53°03' E 002°14'1 0.2
2014-Oct-11 16:21N 53°02' E 002°14'1 0.6
2014-Oct-11 15:28N 53°01' E 002°14'2 0.4
2014-Oct-11 10:21N 52°59' E 002°15'3 3.3
2014-Oct-11 09:33N 53°02' E 002°15'1 1.2
2014-Oct-11 08:32N 53°03' E 002°14'4 1.2
2014-Oct-11 05:17N 52°59' E 002°14'1 0.4
2014-Oct-11 03:21N 52°60' E 002°14'0 0.2
2014-Oct-11 02:33N 53°00' E 002°14'1 0.4
2014-Oct-11 00:33N 53°01' E 002°14'1 1.2
2014-Oct-10 23:31N 53°02' E 002°14'1 0.2
2014-Oct-10 19:11N 53°01' E 002°15'0 0.2
2014-Oct-10 16:12N 53°02' E 002°14'0 0.3
2014-Oct-10 15:24N 53°02' E 002°14'0 0.3
2014-Oct-10 14:30N 53°02' E 002°14'1 0.5
2014-Oct-10 11:29N 53°03' E 002°14'  

Dump ship's entire track history